Time,TemperatureF,DewpointF,PressureIn,WindDirection,WindDirectionDegrees,WindSpeedMPH,WindSpeedGustMPH,Humidity,HourlyPrecipIn,Conditions,Clouds,dailyrainin,SoftwareType,DateUTC
2013-01-25 00:02:00,41.7,39.9,29.59,West,270,0.0,2.0,93,0.00,,,0.19,meteohub,2013-01-25 08:02:00,
2013-01-25 00:07:00,41.9,39.2,29.58,West,270,1.0,2.0,90,0.00,,,0.19,meteohub,2013-01-25 08:07:00,
2013-01-25 00:12:00,41.9,39.2,29.58,West,270,1.0,2.0,90,0.00,,,0.19,meteohub,2013-01-25 08:12:00,
2013-01-25 00:17:00,42.1,39.6,29.58,West,270,0.0,1.0,91,0.00,,,0.19,meteohub,2013-01-25 08:17:00,
2013-01-25 00:22:00,42.1,39.6,29.57,West,270,0.0,1.0,91,0.00,,,0.19,meteohub,2013-01-25 08:22:00,
2013-01-25 00:27:00,42.1,39.6,29.57,West,270,0.0,1.0,91,0.00,,,0.19,meteohub,2013-01-25 08:27:00,
2013-01-25 00:32:00,42.3,39.7,29.57,West,270,0.0,1.0,91,0.00,,,0.19,meteohub,2013-01-25 08:32:00,
2013-01-25 00:37:00,42.3,39.6,29.58,West,270,0.0,0.0,90,0.00,,,0.19,meteohub,2013-01-25 08:37:00,
2013-01-25 00:42:00,42.4,39.9,29.58,SW,225,2.0,0.0,91,0.00,,,0.19,meteohub,2013-01-25 08:42:00,
2013-01-25 00:47:00,42.3,39.7,29.57,SW,225,0.0,2.0,91,0.00,,,0.19,meteohub,2013-01-25 08:47:00,
2013-01-25 00:52:00,42.4,39.7,29.57,SW,225,0.0,2.0,90,0.00,,,0.19,meteohub,2013-01-25 08:52:00,
2013-01-25 00:57:00,42.4,39.7,29.57,SW,225,0.0,2.0,90,0.00,,,0.19,meteohub,2013-01-25 08:57:00,
2013-01-25 01:02:00,43.0,40.3,29.57,SW,225,0.0,0.0,90,0.00,,,0.19,meteohub,2013-01-25 09:02:00,
2013-01-25 01:07:00,43.0,40.3,29.57,SW,225,0.0,2.0,90,0.00,,,0.19,meteohub,2013-01-25 09:07:00,
2013-01-25 01:12:00,43.3,40.6,29.57,SW,225,0.0,2.0,90,0.00,,,0.19,meteohub,2013-01-25 09:12:00,
2013-01-25 01:17:00,43.3,40.6,29.56,SW,225,0.0,2.0,90,0.00,,,0.19,meteohub,2013-01-25 09:17:00,
2013-01-25 01:22:00,43.7,40.6,29.56,West,270,1.0,0.0,89,0.00,,,0.19,meteohub,2013-01-25 09:22:00,
2013-01-25 01:27:00,43.5,40.5,29.56,West,270,2.0,2.0,89,0.00,,,0.19,meteohub,2013-01-25 09:27:00,
2013-01-25 01:33:00,43.5,40.5,29.56,West,270,1.0,2.0,89,0.00,,,0.19,meteohub,2013-01-25 09:33:00,
2013-01-25 01:38:00,43.5,40.5,29.56,West,270,1.0,2.0,89,0.00,,,0.19,meteohub,2013-01-25 09:38:00,
2013-01-25 01:49:00,43.2,40.1,29.56,West,270,2.0,2.0,89,0.00,,,0.19,meteohub,2013-01-25 09:49:00,
2013-01-25 01:54:00,43.2,40.1,29.56,West,270,2.0,2.0,89,0.00,,,0.19,meteohub,2013-01-25 09:54:00,
2013-01-25 01:59:00,43.2,40.1,29.56,West,270,2.0,2.0,89,0.00,,,0.19,meteohub,2013-01-25 09:59:00,
2013-01-25 02:29:00,43.9,40.3,29.56,South,180,0.0,-999.0,87,0.00,,,0.19,meteohub,2013-01-25 10:29:00,
2013-01-25 02:34:00,44.1,40.5,29.55,West,270,1.0,-999.0,87,0.00,,,0.19,meteohub,2013-01-25 10:34:00,
2013-01-25 02:40:00,44.1,40.5,29.55,West,270,1.0,1.0,87,0.00,,,0.19,meteohub,2013-01-25 10:40:00,
2013-01-25 02:45:00,44.1,40.5,29.55,West,270,0.0,1.0,87,0.00,,,0.19,meteohub,2013-01-25 10:45:00,
2013-01-25 02:50:00,44.1,40.5,29.55,West,270,0.0,1.0,87,0.00,,,0.19,meteohub,2013-01-25 10:50:00,
2013-01-25 02:55:00,44.4,40.8,29.55,West,270,0.0,1.0,87,0.00,,,0.19,meteohub,2013-01-25 10:55:00,
2013-01-25 03:00:00,44.2,40.6,29.55,West,270,0.0,1.0,87,0.00,,,0.19,meteohub,2013-01-25 11:00:00,
2013-01-25 03:05:00,44.1,40.5,29.55,West,270,0.0,0.0,87,0.00,,,0.19,meteohub,2013-01-25 11:05:00,
2013-01-25 03:10:00,43.9,40.6,29.55,SW,225,2.0,0.0,88,0.00,,,0.19,meteohub,2013-01-25 11:10:00,
2013-01-25 03:15:00,43.9,40.6,29.55,SW,225,0.0,0.0,88,0.00,,,0.19,meteohub,2013-01-25 11:15:00,
2013-01-25 03:20:00,43.9,40.6,29.55,SW,225,0.0,2.0,88,0.00,,,0.19,meteohub,2013-01-25 11:20:00,
2013-01-25 03:25:00,43.9,40.6,29.55,SW,225,0.0,2.0,88,0.00,,,0.19,meteohub,2013-01-25 11:25:00,
2013-01-25 03:30:00,44.1,41.0,29.54,North,0,2.0,0.0,89,0.00,,,0.19,meteohub,2013-01-25 11:30:00,
2013-01-25 03:35:00,44.1,40.8,29.54,North,0,0.0,2.0,88,0.00,,,0.19,meteohub,2013-01-25 11:35:00,
2013-01-25 03:40:00,44.2,41.2,29.54,North,0,0.0,2.0,89,0.00,,,0.19,meteohub,2013-01-25 11:40:00,
2013-01-25 03:45:00,44.2,41.2,29.54,North,0,0.0,2.0,89,0.01,,,0.20,meteohub,2013-01-25 11:45:00,
2013-01-25 03:51:00,44.2,41.2,29.54,West,270,0.0,2.0,89,0.01,,,0.20,meteohub,2013-01-25 11:51:00,
2013-01-25 03:56:00,44.2,41.2,29.53,West,270,0.0,2.0,89,0.01,,,0.20,meteohub,2013-01-25 11:56:00,
2013-01-25 04:01:00,44.2,41.2,29.53,West,270,0.0,2.0,89,0.01,,,0.20,meteohub,2013-01-25 12:01:00,
2013-01-25 04:06:00,44.2,41.5,29.53,West,270,0.0,0.0,90,0.01,,,0.20,meteohub,2013-01-25 12:06:00,
2013-01-25 04:11:00,44.4,41.7,29.53,West,270,0.0,0.0,90,0.01,,,0.20,meteohub,2013-01-25 12:11:00,
2013-01-25 04:16:00,44.6,41.5,29.53,West,270,0.0,0.0,89,0.01,,,0.20,meteohub,2013-01-25 12:16:00,
2013-01-25 04:21:00,45.0,42.3,29.53,West,270,0.0,0.0,90,0.01,,,0.20,meteohub,2013-01-25 12:21:00,
2013-01-25 04:26:00,45.1,42.4,29.53,West,270,0.0,0.0,90,0.01,,,0.20,meteohub,2013-01-25 12:26:00,
2013-01-25 04:31:00,45.1,42.4,29.53,West,270,0.0,0.0,90,0.01,,,0.20,meteohub,2013-01-25 12:31:00,
2013-01-25 04:36:00,45.1,42.4,29.52,West,270,0.0,0.0,90,0.01,,,0.20,meteohub,2013-01-25 12:36:00,
2013-01-25 04:41:00,45.3,42.6,29.52,West,270,0.0,0.0,90,0.00,,,0.20,meteohub,2013-01-25 12:41:00,
2013-01-25 04:46:00,45.3,42.6,29.52,West,270,0.0,0.0,90,0.00,,,0.20,meteohub,2013-01-25 12:46:00,
2013-01-25 04:51:00,45.3,42.6,29.53,West,270,0.0,0.0,90,0.00,,,0.20,meteohub,2013-01-25 12:51:00,
2013-01-25 04:56:00,45.3,42.8,29.52,West,270,0.0,0.0,91,0.00,,,0.20,meteohub,2013-01-25 12:56:00,
2013-01-25 05:01:00,45.3,42.6,29.52,NW,315,1.0,0.0,90,0.00,,,0.20,meteohub,2013-01-25 13:01:00,
2013-01-25 05:06:00,45.3,42.6,29.52,NW,315,0.0,1.0,90,0.00,,,0.20,meteohub,2013-01-25 13:06:00,
2013-01-25 05:11:00,45.3,42.6,29.52,East,90,0.0,1.0,90,0.00,,,0.20,meteohub,2013-01-25 13:11:00,
2013-01-25 05:16:00,45.3,42.8,29.53,SE,135,2.0,2.0,91,0.00,,,0.20,meteohub,2013-01-25 13:16:00,
2013-01-25 05:21:00,45.5,43.0,29.52,SE,135,2.0,2.0,91,0.00,,,0.20,meteohub,2013-01-25 13:21:00,
2013-01-25 05:27:00,45.3,42.8,29.52,NE,45,2.0,2.0,91,0.00,,,0.20,meteohub,2013-01-25 13:27:00,
2013-01-25 05:32:00,45.3,42.8,29.52,SW,225,6.0,6.0,91,0.00,,,0.20,meteohub,2013-01-25 13:32:00,
2013-01-25 05:37:00,45.5,42.8,29.52,South,180,3.0,6.0,90,0.00,,,0.20,meteohub,2013-01-25 13:37:00,
2013-01-25 05:42:00,45.5,43.0,29.51,SW,225,4.0,6.0,91,0.00,,,0.20,meteohub,2013-01-25 13:42:00,
2013-01-25 05:47:00,45.5,43.0,29.52,South,180,3.0,6.0,91,0.00,,,0.20,meteohub,2013-01-25 13:47:00,
2013-01-25 05:52:00,45.5,43.0,29.51,South,180,1.0,6.0,91,0.00,,,0.20,meteohub,2013-01-25 13:52:00,
2013-01-25 05:57:00,45.5,43.0,29.52,SE,135,0.0,6.0,91,0.00,,,0.20,meteohub,2013-01-25 13:57:00,
2013-01-25 06:02:00,45.3,42.8,29.51,SE,135,0.0,4.0,91,0.00,,,0.20,meteohub,2013-01-25 14:02:00,
2013-01-25 06:07:00,45.3,42.8,29.52,NE,45,1.0,3.0,91,0.00,,,0.20,meteohub,2013-01-25 14:07:00,
2013-01-25 06:12:00,45.1,42.6,29.51,NE,45,1.0,1.0,91,0.00,,,0.20,meteohub,2013-01-25 14:12:00,
2013-01-25 06:17:00,45.1,42.6,29.51,NE,45,0.0,1.0,91,0.00,,,0.20,meteohub,2013-01-25 14:17:00,
2013-01-25 06:22:00,45.1,42.6,29.52,NE,45,0.0,1.0,91,0.00,,,0.20,meteohub,2013-01-25 14:22:00,
2013-01-25 06:27:00,45.1,42.6,29.52,East,90,0.0,1.0,91,0.00,,,0.20,meteohub,2013-01-25 14:27:00,
2013-01-25 06:32:00,45.1,42.6,29.52,NE,45,1.0,0.0,91,0.00,,,0.20,meteohub,2013-01-25 14:32:00,
2013-01-25 06:37:00,45.1,42.6,29.52,NE,45,1.0,1.0,91,0.00,,,0.20,meteohub,2013-01-25 14:37:00,
2013-01-25 06:42:00,45.0,42.4,29.52,East,90,1.0,2.0,91,0.00,,,0.20,meteohub,2013-01-25 14:42:00,
2013-01-25 06:47:00,45.0,42.4,29.52,East,90,1.0,2.0,91,0.00,,,0.20,meteohub,2013-01-25 14:47:00,
2013-01-25 06:52:00,44.8,42.3,29.52,East,90,1.0,2.0,91,0.00,,,0.20,meteohub,2013-01-25 14:52:00,
2013-01-25 06:57:00,44.8,42.3,29.52,North,0,2.0,2.0,91,0.00,,,0.20,meteohub,2013-01-25 14:57:00,
2013-01-25 07:02:00,44.8,42.3,29.52,NE,45,0.0,2.0,91,0.00,,,0.20,meteohub,2013-01-25 15:02:00,
2013-01-25 07:07:00,44.8,42.3,29.52,NE,45,0.0,2.0,91,0.00,,,0.20,meteohub,2013-01-25 15:07:00,
2013-01-25 07:12:00,44.6,42.1,29.52,NE,45,0.0,2.0,91,0.00,,,0.20,meteohub,2013-01-25 15:12:00,
2013-01-25 07:17:00,44.6,42.1,29.52,NE,45,0.0,0.0,91,0.01,,,0.21,meteohub,2013-01-25 15:17:00,
2013-01-25 07:22:00,44.6,42.1,29.52,NE,45,0.0,0.0,91,0.01,,,0.21,meteohub,2013-01-25 15:22:00,
2013-01-25 07:27:00,44.6,42.1,29.52,NE,45,0.0,0.0,91,0.01,,,0.21,meteohub,2013-01-25 15:27:00,
2013-01-25 10:47:00,47.5,44.4,29.51,SE,135,4.0,-999.0,89,-99.99,,,0.21,meteohub,2013-01-25 18:47:00,
2013-01-25 10:52:00,47.7,44.6,29.51,West,270,2.0,4.0,89,0.00,,,0.22,meteohub,2013-01-25 18:52:00,
2013-01-25 10:57:00,48.2,45.1,29.50,SW,225,0.0,4.0,89,0.00,,,0.22,meteohub,2013-01-25 18:57:00,
2013-01-25 11:03:00,48.7,45.7,29.50,SE,135,1.0,4.0,89,0.00,,,0.22,meteohub,2013-01-25 19:03:00,
2013-01-25 11:08:00,48.7,45.7,29.50,SW,225,2.0,3.0,89,0.00,,,0.22,meteohub,2013-01-25 19:08:00,
2013-01-25 11:13:00,48.4,45.0,29.50,SW,225,2.0,2.0,88,0.00,,,0.22,meteohub,2013-01-25 19:13:00,
2013-01-25 11:18:00,48.6,45.1,29.50,South,180,1.0,3.0,88,0.00,,,0.22,meteohub,2013-01-25 19:18:00,
2013-01-25 11:23:00,48.9,45.1,29.50,East,90,2.0,3.0,87,0.00,,,0.22,meteohub,2013-01-25 19:23:00,
2013-01-25 11:28:00,49.1,45.3,29.50,West,270,2.0,2.0,87,0.00,,,0.22,meteohub,2013-01-25 19:28:00,
2013-01-25 11:33:00,49.3,45.5,29.50,SE,135,2.0,3.0,87,0.00,,,0.22,meteohub,2013-01-25 19:33:00,
2013-01-25 11:38:00,49.5,45.5,29.49,SE,135,1.0,3.0,86,0.00,,,0.22,meteohub,2013-01-25 19:38:00,
2013-01-25 11:43:00,49.6,45.7,29.49,SW,225,3.0,3.0,86,0.00,,,0.22,meteohub,2013-01-25 19:43:00,
2013-01-25 11:48:00,49.8,45.9,29.49,SE,135,1.0,3.0,86,0.00,,,0.22,meteohub,2013-01-25 19:48:00,
2013-01-25 11:53:00,49.8,45.5,29.49,South,180,1.0,3.0,85,0.00,,,0.22,meteohub,2013-01-25 19:53:00,
2013-01-25 11:58:00,50.2,45.9,29.49,SE,135,1.0,4.0,85,0.00,,,0.22,meteohub,2013-01-25 19:58:00,
2013-01-25 12:03:00,50.4,45.7,29.48,SW,225,1.0,4.0,84,0.00,,,0.22,meteohub,2013-01-25 20:03:00,
2013-01-25 12:08:00,50.4,45.1,29.48,South,180,2.0,3.0,82,0.00,,,0.22,meteohub,2013-01-25 20:08:00,
2013-01-25 12:14:00,50.4,44.8,29.48,SW,225,2.0,4.0,81,0.00,,,0.22,meteohub,2013-01-25 20:14:00,
2013-01-25 12:19:00,50.5,44.2,29.48,WSW,248,3.0,4.0,79,0.00,,,0.22,meteohub,2013-01-25 20:19:00,
2013-01-25 12:24:00,50.9,44.6,29.48,South,180,1.0,4.0,79,0.00,,,0.22,meteohub,2013-01-25 20:24:00,
2013-01-25 12:29:00,51.1,44.4,29.47,South,180,4.0,4.0,78,0.00,,,0.22,meteohub,2013-01-25 20:29:00,
2013-01-25 12:34:00,50.9,43.9,29.47,SE,135,3.0,4.0,77,0.00,,,0.22,meteohub,2013-01-25 20:34:00,
2013-01-25 12:39:00,51.3,43.9,29.47,SW,225,0.0,4.0,76,0.00,,,0.22,meteohub,2013-01-25 20:39:00,
2013-01-25 12:44:00,52.7,44.6,29.47,SW,225,2.0,4.0,74,0.00,,,0.22,meteohub,2013-01-25 20:44:00,
2013-01-25 12:49:00,53.1,44.6,29.47,West,270,3.0,4.0,73,0.00,,,0.22,meteohub,2013-01-25 20:49:00,
2013-01-25 12:54:00,54.9,46.4,29.47,NW,315,3.0,4.0,73,0.00,,,0.22,meteohub,2013-01-25 20:54:00,
2013-01-25 12:59:00,55.4,47.7,29.47,West,270,2.0,4.0,75,0.00,,,0.22,meteohub,2013-01-25 20:59:00,
2013-01-25 13:04:00,55.6,46.8,29.46,SW,225,4.0,4.0,72,0.00,,,0.22,meteohub,2013-01-25 21:04:00,
2013-01-25 13:09:00,55.6,46.4,29.47,SW,225,10.0,10.0,71,0.00,,,0.22,meteohub,2013-01-25 21:09:00,
2013-01-25 13:14:00,54.7,45.5,29.46,South,180,8.0,8.0,71,0.00,,,0.22,meteohub,2013-01-25 21:14:00,
2013-01-25 13:19:00,53.6,45.1,29.46,SW,225,2.0,10.0,73,0.00,,,0.22,meteohub,2013-01-25 21:19:00,
2013-01-25 13:24:00,53.4,45.3,29.45,East,90,3.0,10.0,74,0.00,,,0.22,meteohub,2013-01-25 21:24:00,
2013-01-25 13:30:00,53.2,45.5,29.46,SW,225,3.0,9.0,75,0.00,,,0.22,meteohub,2013-01-25 21:30:00,
2013-01-25 13:35:00,53.1,45.3,29.45,West,270,4.0,9.0,75,0.00,,,0.22,meteohub,2013-01-25 21:35:00,
2013-01-25 13:40:00,52.7,45.3,29.45,SE,135,4.0,6.0,76,0.00,,,0.22,meteohub,2013-01-25 21:40:00,
2013-01-25 13:45:00,52.7,45.3,29.45,SW,225,3.0,6.0,76,0.00,,,0.22,meteohub,2013-01-25 21:45:00,
2013-01-25 13:50:00,52.5,45.1,29.45,SW,225,2.0,4.0,76,0.00,,,0.22,meteohub,2013-01-25 21:50:00,
2013-01-25 13:55:00,52.3,45.0,29.45,SW,225,2.0,5.0,76,0.00,,,0.22,meteohub,2013-01-25 21:55:00,
2013-01-25 14:00:00,52.5,45.5,29.45,SW,225,2.0,5.0,77,0.00,,,0.22,meteohub,2013-01-25 22:00:00,
2013-01-25 14:05:00,52.5,45.1,29.44,SW,225,4.0,5.0,76,0.00,,,0.22,meteohub,2013-01-25 22:05:00,
2013-01-25 14:10:00,53.4,48.0,29.44,SE,135,3.0,3.0,82,0.00,,,0.22,meteohub,2013-01-25 22:10:00,
2013-01-25 14:15:00,53.8,48.7,29.44,SW,225,2.0,7.0,83,0.00,,,0.22,meteohub,2013-01-25 22:15:00,
2013-01-25 14:20:00,53.2,48.9,29.44,South,180,2.0,7.0,85,0.00,,,0.22,meteohub,2013-01-25 22:20:00,
2013-01-25 14:25:00,53.1,49.3,29.44,West,270,1.0,4.0,87,0.00,,,0.22,meteohub,2013-01-25 22:25:00,
2013-01-25 14:30:00,52.9,49.1,29.45,SW,225,4.0,4.0,87,0.00,,,0.22,meteohub,2013-01-25 22:30:00,
2013-01-25 14:35:00,52.5,48.7,29.44,SW,225,3.0,4.0,87,0.00,,,0.22,meteohub,2013-01-25 22:35:00,
2013-01-25 14:40:00,52.2,48.7,29.44,SW,225,2.0,4.0,88,0.00,,,0.22,meteohub,2013-01-25 22:40:00,
2013-01-25 14:45:00,51.8,49.8,29.44,SW,225,2.0,4.0,93,0.00,,,0.22,meteohub,2013-01-25 22:45:00,
2013-01-25 14:50:00,52.0,50.0,29.44,West,270,4.0,4.0,93,0.00,,,0.22,meteohub,2013-01-25 22:50:00,
2013-01-25 14:55:00,52.0,50.0,29.44,South,180,2.0,4.0,93,0.00,,,0.22,meteohub,2013-01-25 22:55:00,
2013-01-25 15:00:00,52.0,50.0,29.44,SW,225,2.0,4.0,93,0.00,,,0.22,meteohub,2013-01-25 23:00:00,
2013-01-25 15:06:00,51.8,49.6,29.44,West,270,4.0,6.0,92,0.00,,,0.22,meteohub,2013-01-25 23:06:00,
2013-01-25 15:11:00,51.8,49.8,29.44,SW,225,2.0,6.0,93,0.00,,,0.22,meteohub,2013-01-25 23:11:00,
2013-01-25 15:16:00,51.6,49.6,29.44,SW,225,2.0,4.0,93,0.00,,,0.22,meteohub,2013-01-25 23:16:00,
2013-01-25 15:21:00,51.6,49.6,29.43,SW,225,2.0,4.0,93,0.00,,,0.22,meteohub,2013-01-25 23:21:00,
2013-01-25 15:26:00,51.6,49.6,29.44,SW,225,4.0,4.0,93,0.00,,,0.22,meteohub,2013-01-25 23:26:00,
2013-01-25 15:31:00,51.6,49.5,29.43,SW,225,4.0,4.0,92,0.00,,,0.22,meteohub,2013-01-25 23:31:00,
2013-01-25 15:36:00,51.6,49.1,29.43,SW,225,3.0,7.0,91,0.00,,,0.22,meteohub,2013-01-25 23:36:00,
2013-01-25 15:41:00,51.4,49.3,29.43,SW,225,4.0,8.0,92,0.00,,,0.22,meteohub,2013-01-25 23:41:00,
2013-01-25 15:46:00,51.3,49.1,29.43,SW,225,4.0,8.0,92,0.00,,,0.22,meteohub,2013-01-25 23:46:00,
2013-01-25 15:51:00,51.3,49.1,29.44,SW,225,6.0,8.0,92,0.00,,,0.22,meteohub,2013-01-25 23:51:00,
2013-01-25 15:56:00,51.4,49.3,29.43,West,270,6.0,8.0,92,0.00,,,0.22,meteohub,2013-01-25 23:56:00,
2013-01-25 16:01:00,51.3,48.7,29.43,SW,225,7.0,8.0,91,0.00,,,0.22,meteohub,2013-01-26 00:01:00,
2013-01-25 16:06:00,51.3,49.1,29.43,SW,225,5.0,9.0,92,0.00,,,0.00,meteohub,2013-01-26 00:06:00,
2013-01-25 16:11:00,51.3,48.7,29.43,SW,225,6.0,9.0,91,0.00,,,0.00,meteohub,2013-01-26 00:11:00,
2013-01-25 16:16:00,51.3,48.4,29.43,West,270,5.0,8.0,90,0.00,,,0.00,meteohub,2013-01-26 00:16:00,
2013-01-25 16:21:00,51.3,48.4,29.43,South,180,3.0,8.0,90,0.00,,,0.00,meteohub,2013-01-26 00:21:00,
2013-01-25 16:26:00,51.1,48.2,29.43,SW,225,2.0,8.0,90,0.00,,,0.00,meteohub,2013-01-26 00:26:00,
2013-01-25 16:31:00,50.7,48.2,29.43,SW,225,2.0,8.0,91,0.00,,,0.00,meteohub,2013-01-26 00:31:00,
2013-01-25 16:37:00,50.5,48.0,29.43,SW,225,4.0,8.0,91,0.00,,,0.00,meteohub,2013-01-26 00:37:00,
2013-01-25 16:42:00,50.7,47.8,29.43,West,270,2.0,5.0,90,0.00,,,0.00,meteohub,2013-01-26 00:42:00,
2013-01-25 16:47:00,51.4,48.0,29.43,South,180,1.0,5.0,88,0.00,,,0.00,meteohub,2013-01-26 00:47:00,
2013-01-25 16:52:00,51.4,47.5,29.43,SW,225,4.0,5.0,86,0.00,,,0.00,meteohub,2013-01-26 00:52:00,
2013-01-25 16:57:00,50.0,46.6,29.43,West,270,3.0,5.0,88,0.00,,,0.00,meteohub,2013-01-26 00:57:00,
2013-01-25 17:02:00,48.9,46.0,29.43,SW,225,2.0,5.0,90,0.00,,,0.00,meteohub,2013-01-26 01:02:00,
2013-01-25 17:07:00,47.8,45.3,29.42,SW,225,4.0,4.0,91,0.00,,,0.00,meteohub,2013-01-26 01:07:00,
2013-01-25 17:12:00,47.3,45.1,29.42,SW,225,2.0,5.0,92,0.00,,,0.00,meteohub,2013-01-26 01:12:00,
2013-01-25 17:17:00,46.9,45.3,29.42,SW,225,2.0,5.0,94,0.00,,,0.00,meteohub,2013-01-26 01:17:00,
2013-01-25 17:22:00,46.8,45.1,29.42,SW,225,3.0,5.0,94,0.00,,,0.00,meteohub,2013-01-26 01:22:00,
2013-01-25 17:27:00,46.4,44.8,29.42,SW,225,3.0,4.0,94,0.00,,,0.00,meteohub,2013-01-26 01:27:00,
2013-01-25 17:32:00,46.0,44.4,29.42,West,270,2.0,4.0,94,0.00,,,0.00,meteohub,2013-01-26 01:32:00,
2013-01-25 17:37:00,45.7,44.4,29.42,SW,225,3.0,4.0,95,0.00,,,0.00,meteohub,2013-01-26 01:37:00,
2013-01-25 17:42:00,45.9,44.2,29.42,SW,225,2.0,5.0,94,0.00,,,0.00,meteohub,2013-01-26 01:42:00,
2013-01-25 17:47:00,45.5,43.9,29.42,West,270,2.0,5.0,94,0.00,,,0.00,meteohub,2013-01-26 01:47:00,
2013-01-25 17:52:00,45.3,44.1,29.42,SW,225,4.0,5.0,95,0.00,,,0.00,meteohub,2013-01-26 01:52:00,
2013-01-25 17:57:00,45.5,44.2,29.42,SW,225,4.0,4.0,95,0.00,,,0.00,meteohub,2013-01-26 01:57:00,
2013-01-25 18:02:00,45.3,44.1,29.42,SW,225,3.0,6.0,95,0.00,,,0.00,meteohub,2013-01-26 02:02:00,
2013-01-25 18:07:00,45.1,43.9,29.42,SW,225,4.0,6.0,95,0.00,,,0.00,meteohub,2013-01-26 02:07:00,
2013-01-25 18:12:00,45.5,43.9,29.42,West,270,6.0,6.0,94,0.00,,,0.00,meteohub,2013-01-26 02:12:00,
2013-01-25 18:17:00,45.5,43.5,29.42,SW,225,4.0,6.0,93,0.00,,,0.00,meteohub,2013-01-26 02:17:00,
2013-01-25 18:22:00,45.5,43.5,29.42,West,270,4.0,7.0,93,0.00,,,0.00,meteohub,2013-01-26 02:22:00,
2013-01-25 18:27:00,45.3,43.7,29.42,SW,225,4.0,7.0,94,0.00,,,0.00,meteohub,2013-01-26 02:27:00,
2013-01-25 18:32:00,45.1,43.5,29.42,South,180,6.0,7.0,94,0.00,,,0.00,meteohub,2013-01-26 02:32:00,
2013-01-25 18:37:00,45.3,43.7,29.43,SW,225,5.0,8.0,94,0.00,,,0.00,meteohub,2013-01-26 02:37:00,
2013-01-25 18:42:00,45.1,43.2,29.42,WSW,248,5.0,8.0,93,0.00,,,0.00,meteohub,2013-01-26 02:42:00,
2013-01-25 18:47:00,44.8,42.8,29.43,South,180,2.0,8.0,93,0.00,,,0.00,meteohub,2013-01-26 02:47:00,
2013-01-25 18:52:00,44.1,42.4,29.43,NE,45,0.0,6.0,94,0.00,,,0.00,meteohub,2013-01-26 02:52:00,
2013-01-25 18:57:00,43.5,42.3,29.43,NE,45,2.0,5.0,95,0.00,,,0.00,meteohub,2013-01-26 02:57:00,
2013-01-25 19:02:00,43.2,41.9,29.42,NE,45,4.0,4.0,95,0.00,,,0.00,meteohub,2013-01-26 03:02:00,
2013-01-25 19:07:00,43.2,42.4,29.43,North,0,2.0,4.0,97,0.00,,,0.00,meteohub,2013-01-26 03:07:00,
2013-01-25 19:12:00,43.2,42.6,29.43,NE,45,3.0,4.0,98,0.00,,,0.00,meteohub,2013-01-26 03:12:00,
2013-01-25 19:17:00,43.2,42.6,29.42,NW,315,1.0,4.0,98,0.00,,,0.00,meteohub,2013-01-26 03:17:00,
2013-01-25 19:22:00,43.2,43.0,29.42,North,0,2.0,4.0,99,0.00,,,0.00,meteohub,2013-01-26 03:22:00,
2013-01-25 19:27:00,43.2,43.0,29.42,East,90,0.0,4.0,99,0.00,,,0.00,meteohub,2013-01-26 03:27:00,
2013-01-25 19:32:00,43.2,43.0,29.42,NE,45,0.0,2.0,99,0.00,,,0.00,meteohub,2013-01-26 03:32:00,
2013-01-25 19:37:00,42.8,42.6,29.42,SE,135,0.0,2.0,99,0.00,,,0.00,meteohub,2013-01-26 03:37:00,
2013-01-25 19:42:00,42.8,42.6,29.43,South,180,0.0,0.0,99,0.00,,,0.00,meteohub,2013-01-26 03:42:00,
2013-01-25 19:47:00,42.6,42.4,29.43,South,180,0.0,2.0,99,0.00,,,0.00,meteohub,2013-01-26 03:47:00,
2013-01-25 19:52:00,42.4,42.3,29.43,South,180,0.0,2.0,99,0.00,,,0.00,meteohub,2013-01-26 03:52:00,
2013-01-25 19:57:00,41.9,41.7,29.42,South,180,0.0,2.0,99,0.00,,,0.00,meteohub,2013-01-26 03:57:00,
2013-01-25 20:02:00,41.5,41.4,29.42,South,180,0.0,0.0,99,0.00,,,0.00,meteohub,2013-01-26 04:02:00,
2013-01-25 20:07:00,41.5,41.4,29.42,South,180,0.0,0.0,99,0.00,,,0.00,meteohub,2013-01-26 04:07:00,
2013-01-25 20:12:00,41.4,41.2,29.42,South,180,0.0,0.0,99,0.00,,,0.00,meteohub,2013-01-26 04:12:00,
2013-01-25 20:17:00,41.4,41.2,29.42,South,180,0.0,0.0,99,0.00,,,0.00,meteohub,2013-01-26 04:17:00,
2013-01-25 20:23:00,41.2,41.0,29.43,West,270,3.0,0.0,99,0.00,,,0.00,meteohub,2013-01-26 04:23:00,
2013-01-25 20:28:00,40.6,40.5,29.42,West,270,2.0,3.0,99,0.00,,,0.00,meteohub,2013-01-26 04:28:00,
2013-01-25 20:33:00,40.1,39.9,29.42,SW,225,4.0,4.0,99,0.00,,,0.00,meteohub,2013-01-26 04:33:00,
2013-01-25 20:38:00,39.9,39.7,29.42,West,270,1.0,4.0,99,0.00,,,0.00,meteohub,2013-01-26 04:38:00,
2013-01-25 20:43:00,39.6,39.4,29.42,SW,225,2.0,4.0,99,0.00,,,0.00,meteohub,2013-01-26 04:43:00,
2013-01-25 20:48:00,39.4,39.2,29.42,West,270,0.0,4.0,99,0.00,,,0.00,meteohub,2013-01-26 04:48:00,
2013-01-25 20:53:00,39.0,38.8,29.42,West,270,0.0,2.0,99,0.00,,,0.00,meteohub,2013-01-26 04:53:00,
2013-01-25 20:58:00,38.7,38.5,29.42,NE,45,0.0,2.0,99,0.00,,,0.00,meteohub,2013-01-26 04:58:00,
2013-01-25 21:00:00,38.8,38.7,29.42,NE,45,1.0,2.0,99,0.00,,,0.00,meteohub,2013-01-26 05:00:00,
2013-01-25 21:01:00,38.8,38.7,29.42,NE,45,0.0,2.0,99,0.00,,,0.00,meteohub,2013-01-26 05:01:00,
2013-01-25 21:02:00,39.0,38.8,29.42,NE,45,0.0,2.0,99,0.00,,,0.00,meteohub,2013-01-26 05:02:00,
2013-01-25 21:03:00,39.0,38.8,29.42,NE,45,0.0,2.0,99,0.00,,,0.00,meteohub,2013-01-26 05:03:00,
2013-01-25 21:08:00,39.2,39.0,29.42,NE,45,0.0,1.0,99,0.00,,,0.00,meteohub,2013-01-26 05:08:00,
2013-01-25 21:13:00,38.8,38.7,29.42,North,0,0.0,1.0,99,0.00,,,0.00,meteohub,2013-01-26 05:13:00,
2013-01-25 21:18:00,38.3,38.1,29.43,North,0,0.0,1.0,99,0.00,,,0.00,meteohub,2013-01-26 05:18:00,
2013-01-25 21:24:00,38.5,38.3,29.42,West,270,3.0,0.0,99,0.00,,,0.00,meteohub,2013-01-26 05:24:00,
2013-01-25 21:29:00,39.6,39.4,29.42,SW,225,2.0,3.0,99,0.00,,,0.00,meteohub,2013-01-26 05:29:00,
2013-01-25 21:34:00,39.7,39.6,29.42,SW,225,0.0,4.0,99,0.00,,,0.00,meteohub,2013-01-26 05:34:00,
2013-01-25 21:39:00,39.4,39.2,29.42,West,270,3.0,4.0,99,0.00,,,0.00,meteohub,2013-01-26 05:39:00,
2013-01-25 21:44:00,39.7,39.6,29.43,SW,225,0.0,4.0,99,0.00,,,0.00,meteohub,2013-01-26 05:44:00,
2013-01-25 21:49:00,39.4,39.2,29.43,SW,225,2.0,3.0,99,0.00,,,0.00,meteohub,2013-01-26 05:49:00,
2013-01-25 21:54:00,39.6,39.4,29.43,West,270,2.0,3.0,99,0.00,,,0.00,meteohub,2013-01-26 05:54:00,
2013-01-25 21:59:00,39.7,39.6,29.43,SW,225,4.0,4.0,99,0.00,,,0.00,meteohub,2013-01-26 05:59:00,
2013-01-25 22:04:00,40.3,40.1,29.43,West,270,7.0,7.0,99,0.00,,,0.00,meteohub,2013-01-26 06:04:00,
2013-01-25 22:09:00,40.6,40.5,29.43,SW,225,5.0,7.0,99,0.00,,,0.00,meteohub,2013-01-26 06:09:00,
2013-01-25 22:14:00,40.6,40.1,29.43,West,270,3.0,7.0,98,0.00,,,0.00,meteohub,2013-01-26 06:14:00,
2013-01-25 22:19:00,40.3,40.1,29.43,West,270,4.0,7.0,99,0.00,,,0.00,meteohub,2013-01-26 06:19:00,
2013-01-25 22:24:00,40.5,40.3,29.43,West,270,3.0,5.0,99,0.00,,,0.00,meteohub,2013-01-26 06:24:00,
2013-01-25 22:29:00,40.5,40.3,29.42,NW,315,3.0,5.0,99,0.00,,,0.00,meteohub,2013-01-26 06:29:00,
2013-01-25 22:34:00,40.3,39.7,29.43,West,270,2.0,5.0,98,0.00,,,0.00,meteohub,2013-01-26 06:34:00,
2013-01-25 22:40:00,40.1,39.9,29.43,SW,225,2.0,5.0,99,0.00,,,0.00,meteohub,2013-01-26 06:40:00,
2013-01-25 22:45:00,40.1,39.9,29.43,West,270,3.0,4.0,99,0.00,,,0.00,meteohub,2013-01-26 06:45:00,
2013-01-25 22:50:00,40.1,39.9,29.43,SW,225,2.0,4.0,99,0.00,,,0.00,meteohub,2013-01-26 06:50:00,
2013-01-25 22:55:00,39.7,39.2,29.43,SW,225,0.0,4.0,98,0.00,,,0.00,meteohub,2013-01-26 06:55:00,
2013-01-25 23:00:00,39.2,38.7,29.43,SW,225,0.0,4.0,98,0.00,,,0.00,meteohub,2013-01-26 07:00:00,
2013-01-25 23:05:00,38.7,38.1,29.43,West,270,0.0,3.0,98,0.00,,,0.00,meteohub,2013-01-26 07:05:00,
2013-01-25 23:10:00,38.1,37.6,29.43,SW,225,2.0,2.0,98,0.00,,,0.00,meteohub,2013-01-26 07:10:00,
2013-01-25 23:15:00,37.9,37.8,29.44,SW,225,4.0,4.0,99,0.00,,,0.00,meteohub,2013-01-26 07:15:00,
2013-01-25 23:20:00,38.1,37.9,29.44,West,270,5.0,6.0,99,0.00,,,0.00,meteohub,2013-01-26 07:20:00,
2013-01-25 23:25:00,38.1,37.6,29.44,West,270,5.0,8.0,98,0.00,,,0.00,meteohub,2013-01-26 07:25:00,
2013-01-25 23:30:00,37.8,37.2,29.44,West,270,3.0,8.0,98,0.00,,,0.00,meteohub,2013-01-26 07:30:00,
2013-01-25 23:35:00,37.8,37.2,29.43,SSW,203,5.0,8.0,98,0.00,,,0.00,meteohub,2013-01-26 07:35:00,
2013-01-25 23:40:00,37.8,37.6,29.44,West,270,4.0,6.0,99,0.00,,,0.00,meteohub,2013-01-26 07:40:00,
2013-01-25 23:45:00,38.3,38.1,29.44,West,270,1.0,7.0,99,0.00,,,0.00,meteohub,2013-01-26 07:45:00,
2013-01-25 23:50:00,37.6,37.0,29.44,West,270,0.0,7.0,98,0.00,,,0.00,meteohub,2013-01-26 07:50:00,
2013-01-25 23:55:00,37.2,36.7,29.44,West,270,0.0,7.0,98,0.00,,,0.00,meteohub,2013-01-26 07:55:00,